Location: Mauries
(43.6188°N, 0.3322°W)
Time: 18:44:11
(UTC+00:00)

CUBEBUG 2 - Pass Details

Date: 23 May 2026
Orbit: 545 x 628 km, 97.9° (Epoch: 10 June)

Event Time Altitude Azimuth Distance (km) Brightness Sun altitude
Rises 02:19:16 0° 15° (NNE) 2,721 ? -18.1°
Reaches altitude 10° 02:21:25 10° 18° (NNE) 1,825 ? -17.9°
Maximum altitude 02:25:20 66° 102° (ESE) 602 ? -17.5°
Enters shadow 02:27:11 29° 176° (S) 1,017 ? -17.3°
